Time,TemperatureF,DewpointF,PressureIn,WindDirection,WindDirectionDegrees,WindSpeedMPH,WindSpeedGustMPH,Humidity,HourlyPrecipIn,Conditions,Clouds,dailyrainin,SoftwareType,DateUTC
2013-04-13 00:00:00,70.9,64.0,29.88,SW,225,0.0,0.0,79,0.00,,,0.00,WeatherCatV1.15B25,2013-04-13 04:00:00,
2013-04-13 00:10:00,70.9,-99.9,29.88,SW,225,0.0,0.0,79,0.00,,,0.00,WeatherCatV1.15B25,2013-04-13 04:10:00,
2013-04-13 00:15:00,70.7,64.2,29.88,SW,225,0.0,0.0,80,0.00,,,0.00,WeatherCatV1.15B25,2013-04-13 04:15:00,
2013-04-13 00:20:00,70.7,64.2,29.88,SW,225,0.0,0.0,80,0.00,,,0.00,WeatherCatV1.15B25,2013-04-13 04:20:00,
2013-04-13 00:25:00,70.7,64.2,29.88,WSW,247,0.0,0.0,80,0.00,,,0.00,WeatherCatV1.15B25,2013-04-13 04:25:00,
2013-04-13 00:26:00,70.7,64.2,29.88,WSW,247,0.0,0.0,80,0.00,,,0.00,WeatherCatV1.15B25,2013-04-13 04:26:00,
2013-04-13 00:31:00,70.7,64.6,29.87,WSW,247,0.0,0.0,81,0.00,,,0.00,WeatherCatV1.15B25,2013-04-13 04:31:00,
2013-04-13 00:36:00,70.9,64.7,29.88,SW,225,0.0,0.0,81,0.00,,,0.00,WeatherCatV1.15B25,2013-04-13 04:36:00,
2013-04-13 00:41:00,70.7,64.6,29.87,SW,225,0.0,0.0,81,0.00,,,0.00,WeatherCatV1.15B25,2013-04-13 04:41:00,
2013-04-13 00:46:00,70.7,64.6,29.87,SW,225,0.0,0.0,81,0.00,,,0.00,WeatherCatV1.15B25,2013-04-13 04:46:00,
2013-04-13 00:51:00,70.9,64.7,29.88,SW,225,0.0,0.0,81,0.00,,,0.00,WeatherCatV1.15B25,2013-04-13 04:51:00,
2013-04-13 00:56:00,70.9,64.7,29.88,SW,225,0.0,0.0,81,0.00,,,0.00,WeatherCatV1.15B25,2013-04-13 04:56:00,
2013-04-13 01:01:00,70.9,64.7,29.88,SW,225,0.0,0.0,81,0.00,,,0.00,WeatherCatV1.15B25,2013-04-13 05:01:00,
2013-04-13 01:06:00,70.9,64.7,29.88,SW,225,0.0,0.0,81,0.00,,,0.00,WeatherCatV1.15B25,2013-04-13 05:06:00,
2013-04-13 01:11:00,70.9,64.7,29.88,SW,225,0.0,0.0,81,0.00,,,0.00,WeatherCatV1.15B25,2013-04-13 05:11:00,
2013-04-13 01:16:00,71.1,64.9,29.88,SW,225,0.0,0.0,81,0.00,,,0.00,WeatherCatV1.15B25,2013-04-13 05:16:00,
2013-04-13 01:21:00,71.1,64.9,29.88,WSW,247,0.0,0.0,81,0.00,,,0.00,WeatherCatV1.15B25,2013-04-13 05:21:00,
2013-04-13 01:26:00,71.1,64.9,29.88,WSW,247,0.0,0.0,81,0.00,,,0.00,WeatherCatV1.15B25,2013-04-13 05:26:00,
2013-04-13 01:31:00,71.2,65.1,29.88,WSW,247,0.0,0.0,81,0.00,,,0.00,WeatherCatV1.15B25,2013-04-13 05:31:00,
2013-04-13 01:36:00,71.2,65.1,29.88,WNW,292,0.0,0.0,81,0.00,,,0.00,WeatherCatV1.15B25,2013-04-13 05:36:00,
2013-04-13 01:41:00,71.2,65.1,29.88,WNW,292,0.0,0.0,81,0.00,,,0.00,WeatherCatV1.15B25,2013-04-13 05:41:00,
2013-04-13 01:46:00,71.2,65.1,29.89,North,0,0.0,0.0,81,0.00,,,0.00,WeatherCatV1.15B25,2013-04-13 05:46:00,
2013-04-13 01:51:00,71.2,65.4,29.89,NNE,22,0.0,1.8,82,0.00,,,0.00,WeatherCatV1.15B25,2013-04-13 05:51:00,
2013-04-13 01:56:00,71.2,65.4,29.88,West,270,0.0,0.0,82,0.00,,,0.00,WeatherCatV1.15B25,2013-04-13 05:56:00,
2013-04-13 02:01:00,71.4,65.6,29.88,WNW,292,1.6,1.6,82,0.00,,,0.00,WeatherCatV1.15B25,2013-04-13 06:01:00,
2013-04-13 02:06:00,71.4,65.6,29.88,NNW,337,0.0,0.0,82,0.00,,,0.00,WeatherCatV1.15B25,2013-04-13 06:06:00,
2013-04-13 02:11:00,71.4,65.6,29.88,WSW,247,0.0,0.0,82,0.00,,,0.00,WeatherCatV1.15B25,2013-04-13 06:11:00,
2013-04-13 02:16:00,71.4,65.6,29.88,WNW,292,0.0,0.0,82,0.00,,,0.00,WeatherCatV1.15B25,2013-04-13 06:16:00,
2013-04-13 02:21:00,71.2,65.4,29.88,NW,315,1.3,1.3,82,0.00,,,0.00,WeatherCatV1.15B25,2013-04-13 06:21:00,
2013-04-13 02:26:00,71.2,65.4,29.88,WNW,292,1.1,1.1,82,0.00,,,0.00,WeatherCatV1.15B25,2013-04-13 06:26:00,
2013-04-13 02:31:00,71.2,65.8,29.88,North,0,0.0,0.0,83,0.00,,,0.00,WeatherCatV1.15B25,2013-04-13 06:31:00,
2013-04-13 02:36:00,71.2,65.8,29.89,North,0,0.7,0.7,83,0.00,,,0.00,WeatherCatV1.15B25,2013-04-13 06:36:00,
2013-04-13 02:41:00,71.1,65.6,29.88,NNW,337,0.0,0.0,83,0.00,,,0.00,WeatherCatV1.15B25,2013-04-13 06:41:00,
2013-04-13 02:46:00,71.1,65.6,29.88,NNW,337,1.6,1.6,83,0.00,,,0.00,WeatherCatV1.15B25,2013-04-13 06:46:00,
2013-04-13 02:51:00,70.9,65.4,29.88,West,270,0.0,0.0,83,0.00,,,0.00,WeatherCatV1.15B25,2013-04-13 06:51:00,
2013-04-13 02:56:00,70.9,65.4,29.88,WSW,247,0.0,0.0,83,0.00,,,0.00,WeatherCatV1.15B25,2013-04-13 06:56:00,
2013-04-13 03:10:00,70.9,65.4,29.88,West,270,0.0,0.0,83,0.00,,,0.00,WeatherCatV1.15B25,2013-04-13 07:10:00,
2013-04-13 03:15:00,70.9,65.4,29.88,WNW,292,0.0,0.0,83,0.00,,,0.00,WeatherCatV1.15B25,2013-04-13 07:15:00,
2013-04-13 03:20:00,70.9,65.4,29.88,West,270,0.0,0.0,83,0.00,,,0.00,WeatherCatV1.15B25,2013-04-13 07:20:00,
2013-04-13 03:25:00,70.9,65.4,29.88,West,270,0.0,0.0,83,0.00,,,0.00,WeatherCatV1.15B25,2013-04-13 07:25:00,
2013-04-13 03:30:00,70.9,65.4,29.88,WNW,292,0.0,0.0,83,0.00,,,0.00,WeatherCatV1.15B25,2013-04-13 07:30:00,
2013-04-13 03:35:00,70.7,65.2,29.87,WNW,292,0.0,0.0,83,0.00,,,0.00,WeatherCatV1.15B25,2013-04-13 07:35:00,
2013-04-13 03:40:00,70.7,65.2,29.87,NW,315,0.0,0.0,83,0.00,,,0.00,WeatherCatV1.15B25,2013-04-13 07:40:00,
2013-04-13 03:45:00,70.7,65.2,29.88,West,270,0.0,0.0,83,0.00,,,0.00,WeatherCatV1.15B25,2013-04-13 07:45:00,
2013-04-13 03:50:00,70.5,65.1,29.88,West,270,0.0,0.0,83,0.00,,,0.00,WeatherCatV1.15B25,2013-04-13 07:50:00,
2013-04-13 03:55:00,70.5,65.1,29.87,NNW,337,0.0,0.0,83,0.00,,,0.00,WeatherCatV1.15B25,2013-04-13 07:55:00,
2013-04-13 04:00:00,70.3,65.2,29.87,West,270,0.0,0.0,84,0.00,,,0.00,WeatherCatV1.15B25,2013-04-13 08:00:00,
2013-04-13 04:10:00,70.3,65.2,29.87,West,270,0.0,0.0,84,0.00,,,0.00,WeatherCatV1.15B25,2013-04-13 08:10:00,
2013-04-13 04:15:00,70.3,65.2,29.88,West,270,0.0,0.0,84,0.00,,,0.00,WeatherCatV1.15B25,2013-04-13 08:15:00,
2013-04-13 04:20:00,70.3,65.2,29.88,West,270,0.0,0.0,84,0.00,,,0.00,WeatherCatV1.15B25,2013-04-13 08:20:00,
2013-04-13 04:25:00,70.2,65.0,29.88,West,270,0.0,0.0,84,0.00,,,0.00,WeatherCatV1.15B25,2013-04-13 08:25:00,
2013-04-13 04:30:00,70.2,65.0,29.88,West,270,0.0,0.0,84,0.00,,,0.00,WeatherCatV1.15B25,2013-04-13 08:30:00,
2013-04-13 04:35:00,70.2,65.0,29.88,West,270,0.0,0.0,84,0.00,,,0.00,WeatherCatV1.15B25,2013-04-13 08:35:00,
2013-04-13 04:40:00,70.2,65.0,29.88,NNW,337,0.0,0.0,84,0.00,,,0.00,WeatherCatV1.15B25,2013-04-13 08:40:00,
2013-04-13 04:45:00,70.2,65.0,29.88,WNW,292,0.0,0.0,84,0.00,,,0.00,WeatherCatV1.15B25,2013-04-13 08:45:00,
2013-04-13 04:50:00,70.2,65.0,29.88,NW,315,0.0,0.0,84,0.00,,,0.00,WeatherCatV1.15B25,2013-04-13 08:50:00,
2013-04-13 04:55:00,70.2,65.0,29.88,North,0,0.0,0.0,84,0.00,,,0.00,WeatherCatV1.15B25,2013-04-13 08:55:00,
2013-04-13 05:00:00,70.2,65.0,29.88,WNW,292,0.0,0.0,84,0.00,,,0.00,WeatherCatV1.15B25,2013-04-13 09:00:00,
2013-04-13 05:10:00,70.0,64.9,29.88,North,0,1.3,1.3,84,0.00,,,0.00,WeatherCatV1.15B25,2013-04-13 09:10:00,
2013-04-13 05:15:00,70.0,64.9,29.89,NNE,22,0.0,0.0,84,0.00,,,0.00,WeatherCatV1.15B25,2013-04-13 09:15:00,
2013-04-13 05:20:00,70.0,64.9,29.90,NW,315,1.8,1.8,84,0.00,,,0.00,WeatherCatV1.15B25,2013-04-13 09:20:00,
2013-04-13 05:25:00,70.0,64.9,29.90,NW,315,0.0,3.1,84,0.00,,,0.00,WeatherCatV1.15B25,2013-04-13 09:25:00,
2013-04-13 05:30:00,70.0,64.5,29.90,WNW,292,0.0,0.0,83,0.00,,,0.00,WeatherCatV1.15B25,2013-04-13 09:30:00,
2013-04-13 05:35:00,70.0,64.2,29.90,NNW,337,3.6,3.6,82,0.00,,,0.00,WeatherCatV1.15B25,2013-04-13 09:35:00,
2013-04-13 05:40:00,69.6,63.8,29.91,NNW,337,0.0,0.0,82,0.00,,,0.00,WeatherCatV1.15B25,2013-04-13 09:40:00,
2013-04-13 05:45:00,69.8,63.7,29.90,NNE,22,1.1,1.1,81,0.00,,,0.00,WeatherCatV1.15B25,2013-04-13 09:45:00,
2013-04-13 05:50:00,69.6,63.2,29.91,NNW,337,0.0,0.0,80,0.00,,,0.00,WeatherCatV1.15B25,2013-04-13 09:50:00,
2013-04-13 05:55:00,69.4,62.6,29.91,NNE,22,4.0,4.0,79,0.00,,,0.00,WeatherCatV1.15B25,2013-04-13 09:55:00,
2013-04-13 06:10:00,69.4,62.2,29.91,North,0,1.6,1.6,78,-99.99,,,0.00,WeatherCatV1.15B25,2013-04-13 10:10:00,
2013-04-13 06:15:00,69.1,61.5,29.91,NE,45,2.5,2.5,77,0.00,,,0.00,WeatherCatV1.15B25,2013-04-13 10:15:00,
2013-04-13 06:20:00,68.7,61.2,29.91,NNE,22,2.5,2.5,77,0.00,,,0.00,WeatherCatV1.15B25,2013-04-13 10:20:00,
2013-04-13 06:25:00,68.7,60.8,29.92,North,0,3.6,3.6,76,0.00,,,0.00,WeatherCatV1.15B25,2013-04-13 10:25:00,
2013-04-13 06:30:00,68.5,60.3,29.92,NNE,22,0.0,5.1,75,0.00,,,0.00,WeatherCatV1.15B25,2013-04-13 10:30:00,
2013-04-13 06:35:00,68.4,59.8,29.92,ENE,67,2.5,2.5,74,0.00,,,0.00,WeatherCatV1.15B25,2013-04-13 10:35:00,
2013-04-13 06:40:00,68.2,59.2,29.92,NNE,22,3.1,3.1,73,0.00,,,0.00,WeatherCatV1.15B25,2013-04-13 10:40:00,
2013-04-13 06:45:00,67.8,58.1,29.91,NE,45,0.0,2.0,71,0.00,,,0.00,WeatherCatV1.15B25,2013-04-13 10:45:00,
2013-04-13 06:50:00,67.6,57.9,29.92,NE,45,1.1,1.1,71,0.00,,,0.00,WeatherCatV1.15B25,2013-04-13 10:50:00,
2013-04-13 06:55:00,67.6,57.9,29.93,NW,315,0.0,0.0,71,0.00,,,0.00,WeatherCatV1.15B25,2013-04-13 10:55:00,
2013-04-13 07:00:00,67.3,57.6,29.92,NNW,337,0.7,3.1,71,0.00,,,0.00,WeatherCatV1.15B25,2013-04-13 11:00:00,
2013-04-13 07:05:00,67.3,57.6,29.92,North,0,2.0,2.0,71,0.00,,,0.00,WeatherCatV1.15B25,2013-04-13 11:05:00,
2013-04-13 07:10:00,67.1,57.0,29.93,North,0,4.0,4.0,70,0.00,,,0.00,WeatherCatV1.15B25,2013-04-13 11:10:00,
2013-04-13 07:15:00,66.7,55.8,29.93,NNE,22,5.4,5.4,68,0.00,,,0.00,WeatherCatV1.15B25,2013-04-13 11:15:00,
2013-04-13 07:20:00,66.6,55.6,29.93,NNW,337,3.8,3.8,68,0.00,,,0.00,WeatherCatV1.15B25,2013-04-13 11:20:00,
2013-04-13 07:25:00,66.6,55.6,29.94,North,0,3.1,3.1,68,0.00,,,0.00,WeatherCatV1.15B25,2013-04-13 11:25:00,
2013-04-13 07:30:00,66.4,55.0,29.94,North,0,1.1,1.1,67,0.00,,,0.00,WeatherCatV1.15B25,2013-04-13 11:30:00,
2013-04-13 07:35:00,66.2,54.9,29.94,ENE,67,0.0,0.0,67,0.00,,,0.00,WeatherCatV1.15B25,2013-04-13 11:35:00,
2013-04-13 07:40:00,66.0,54.7,29.95,NE,45,0.0,0.0,67,0.00,,,0.00,WeatherCatV1.15B25,2013-04-13 11:40:00,
2013-04-13 07:45:00,66.0,54.3,29.95,NNE,22,6.5,6.5,66,0.00,,,0.00,WeatherCatV1.15B25,2013-04-13 11:45:00,
2013-04-13 07:50:00,66.0,53.9,29.95,North,0,2.5,2.5,65,0.00,,,0.00,WeatherCatV1.15B25,2013-04-13 11:50:00,
2013-04-13 07:55:00,65.8,53.3,29.95,NNE,22,2.0,2.0,64,0.00,,,0.00,WeatherCatV1.15B25,2013-04-13 11:55:00,
2013-04-13 08:00:00,65.8,53.7,29.95,NE,45,2.9,2.9,65,0.00,,,0.00,WeatherCatV1.15B25,2013-04-13 12:00:00,
2013-04-13 08:05:00,65.8,53.3,29.96,North,0,3.4,3.4,64,0.00,,,0.00,WeatherCatV1.15B25,2013-04-13 12:05:00,
2013-04-13 08:10:00,65.8,53.3,29.96,NNW,337,0.7,0.7,64,0.00,,,0.00,WeatherCatV1.15B25,2013-04-13 12:10:00,
2013-04-13 08:15:00,65.8,53.7,29.96,NNE,22,0.0,1.1,65,0.00,,,0.00,WeatherCatV1.15B25,2013-04-13 12:15:00,
2013-04-13 08:20:00,65.8,53.7,29.97,WNW,292,0.0,0.0,65,0.00,,,0.00,WeatherCatV1.15B25,2013-04-13 12:20:00,
2013-04-13 08:25:00,65.8,53.3,29.97,North,0,2.7,2.7,64,0.00,,,0.00,WeatherCatV1.15B25,2013-04-13 12:25:00,
2013-04-13 08:30:00,65.8,53.3,29.97,NNE,22,0.7,4.2,64,0.00,,,0.00,WeatherCatV1.15B25,2013-04-13 12:30:00,
2013-04-13 08:35:00,66.0,53.9,29.98,East,90,0.0,0.0,65,0.00,,,0.00,WeatherCatV1.15B25,2013-04-13 12:35:00,
2013-04-13 08:40:00,66.0,53.5,29.98,North,0,1.1,1.1,64,0.00,,,0.00,WeatherCatV1.15B25,2013-04-13 12:40:00,
2013-04-13 08:45:00,66.0,53.9,29.98,ENE,67,3.1,3.1,65,0.00,,,0.00,WeatherCatV1.15B25,2013-04-13 12:45:00,
2013-04-13 08:50:00,66.0,53.5,29.98,NNW,337,0.0,0.0,64,0.00,,,0.00,WeatherCatV1.15B25,2013-04-13 12:50:00,
2013-04-13 08:55:00,66.0,53.5,29.98,NW,315,2.7,2.7,64,0.00,,,0.00,WeatherCatV1.15B25,2013-04-13 12:55:00,
2013-04-13 09:00:00,66.2,53.6,29.98,NE,45,0.0,0.0,64,0.00,,,0.00,WeatherCatV1.15B25,2013-04-13 13:00:00,
2013-04-13 09:05:00,66.4,53.8,29.98,ESE,112,0.0,0.0,64,0.00,,,0.00,WeatherCatV1.15B25,2013-04-13 13:05:00,
2013-04-13 09:10:00,66.6,54.0,29.98,NNE,22,4.0,4.0,64,0.00,,,0.00,WeatherCatV1.15B25,2013-04-13 13:10:00,
2013-04-13 09:15:00,66.9,53.9,29.98,ENE,67,1.1,2.9,63,0.00,,,0.00,WeatherCatV1.15B25,2013-04-13 13:15:00,
2013-04-13 09:20:00,66.9,53.9,29.98,NNE,22,1.8,1.8,63,0.00,,,0.00,WeatherCatV1.15B25,2013-04-13 13:20:00,
2013-04-13 09:25:00,67.1,54.0,29.99,North,0,3.6,3.6,63,0.00,,,0.00,WeatherCatV1.15B25,2013-04-13 13:25:00,
2013-04-13 09:30:00,67.3,54.2,29.99,ENE,67,0.0,2.9,63,0.00,,,0.00,WeatherCatV1.15B25,2013-04-13 13:30:00,
2013-04-13 09:35:00,67.6,54.6,29.99,NE,45,2.0,2.0,63,0.00,,,0.00,WeatherCatV1.15B25,2013-04-13 13:35:00,
2013-04-13 09:40:00,67.6,54.6,29.99,South,180,1.3,1.3,63,0.00,,,0.00,WeatherCatV1.15B25,2013-04-13 13:40:00,
2013-04-13 09:45:00,68.0,54.5,29.99,North,0,4.0,4.0,62,0.00,,,0.00,WeatherCatV1.15B25,2013-04-13 13:45:00,
2013-04-13 09:50:00,68.2,54.6,29.99,North,0,5.4,5.4,62,0.00,,,0.00,WeatherCatV1.15B25,2013-04-13 13:50:00,
2013-04-13 09:55:00,68.2,54.2,29.99,North,0,5.4,5.4,61,0.00,,,0.00,WeatherCatV1.15B25,2013-04-13 13:55:00,
2013-04-13 10:00:00,68.4,53.5,29.99,NW,315,0.0,1.8,59,0.00,,,0.00,WeatherCatV1.15B25,2013-04-13 14:00:00,
2013-04-13 10:05:00,68.4,53.5,29.99,NE,45,0.0,0.0,59,0.00,,,0.00,WeatherCatV1.15B25,2013-04-13 14:05:00,
2013-04-13 10:10:00,68.5,53.6,29.99,NE,45,2.5,2.5,59,0.00,,,0.00,WeatherCatV1.15B25,2013-04-13 14:10:00,
2013-04-13 10:15:00,68.7,53.3,29.99,North,0,5.8,5.8,58,0.00,,,0.00,WeatherCatV1.15B25,2013-04-13 14:15:00,
2013-04-13 10:20:00,68.9,53.0,29.99,NNW,337,3.8,3.8,57,0.00,,,0.00,WeatherCatV1.15B25,2013-04-13 14:20:00,
2013-04-13 10:25:00,68.9,52.5,29.99,ENE,67,4.9,4.9,56,0.00,,,0.00,WeatherCatV1.15B25,2013-04-13 14:25:00,
2013-04-13 10:30:00,69.1,52.7,29.99,NE,45,8.9,8.9,56,0.00,,,0.00,WeatherCatV1.15B25,2013-04-13 14:30:00,
2013-04-13 10:34:00,69.1,52.7,30.00,ENE,67,4.9,4.9,56,0.00,,,0.00,WeatherCatV1.15B25,2013-04-13 14:34:00,
2013-04-13 10:39:00,69.1,52.2,30.01,NNE,22,3.6,3.6,55,0.00,,,0.00,WeatherCatV1.15B25,2013-04-13 14:39:00,
2013-04-13 10:44:00,69.1,51.7,30.00,NNE,22,3.1,7.2,54,0.00,,,0.00,WeatherCatV1.15B25,2013-04-13 14:44:00,
2013-04-13 10:49:00,69.3,51.9,30.01,NNE,22,8.3,8.3,54,0.00,,,0.00,WeatherCatV1.15B25,2013-04-13 14:49:00,
2013-04-13 10:54:00,69.3,51.9,30.01,SE,135,5.4,5.4,54,0.00,,,0.00,WeatherCatV1.15B25,2013-04-13 14:54:00,
2013-04-13 10:59:00,69.4,52.0,30.01,NNE,22,5.1,5.1,54,0.00,,,0.00,WeatherCatV1.15B25,2013-04-13 14:59:00,
2013-04-13 11:04:00,69.4,51.5,30.01,NNE,22,8.1,8.1,53,0.00,,,0.00,WeatherCatV1.15B25,2013-04-13 15:04:00,
2013-04-13 11:09:00,69.6,51.7,30.01,NNE,22,6.9,8.1,53,0.00,,,0.00,WeatherCatV1.15B25,2013-04-13 15:09:00,
2013-04-13 11:14:00,69.8,50.9,30.01,ENE,67,6.9,6.9,51,0.00,,,0.00,WeatherCatV1.15B25,2013-04-13 15:14:00,
2013-04-13 11:19:00,70.0,51.0,30.01,North,0,2.9,2.9,51,0.00,,,0.00,WeatherCatV1.15B25,2013-04-13 15:19:00,
2013-04-13 11:24:00,70.0,51.0,30.02,East,90,3.1,3.1,51,0.00,,,0.00,WeatherCatV1.15B25,2013-04-13 15:24:00,
2013-04-13 11:29:00,70.0,50.5,30.02,NNE,22,3.4,3.4,50,0.00,,,0.00,WeatherCatV1.15B25,2013-04-13 15:29:00,
2013-04-13 11:34:00,69.8,50.4,30.02,ENE,67,2.5,2.5,50,0.00,,,0.00,WeatherCatV1.15B25,2013-04-13 15:34:00,
2013-04-13 11:39:00,70.0,51.0,30.02,NNE,22,5.8,5.8,51,0.00,,,0.00,WeatherCatV1.15B25,2013-04-13 15:39:00,
2013-04-13 11:44:00,70.7,51.7,30.02,NNE,22,0.9,1.3,51,0.00,,,0.00,WeatherCatV1.15B25,2013-04-13 15:44:00,
2013-04-13 11:49:00,71.1,51.5,30.01,West,270,0.0,0.0,50,0.00,,,0.00,WeatherCatV1.15B25,2013-04-13 15:49:00,
2013-04-13 11:54:00,71.4,51.8,30.02,North,0,3.6,3.6,50,0.00,,,0.00,WeatherCatV1.15B25,2013-04-13 15:54:00,
2013-04-13 11:59:00,71.8,52.1,30.02,NNE,22,0.0,8.7,50,0.00,,,0.00,WeatherCatV1.15B25,2013-04-13 15:59:00,
2013-04-13 12:04:00,72.0,51.7,30.02,NNE,22,2.9,2.9,49,0.00,,,0.00,WeatherCatV1.15B25,2013-04-13 16:04:00,
2013-04-13 12:09:00,72.3,52.0,30.01,NE,45,6.5,6.5,49,0.00,,,0.00,WeatherCatV1.15B25,2013-04-13 16:09:00,
2013-04-13 12:14:00,72.7,51.2,30.01,NW,315,5.6,5.6,47,0.00,,,0.00,WeatherCatV1.15B25,2013-04-13 16:14:00,
2013-04-13 12:19:00,72.9,51.3,30.01,ENE,67,6.0,6.0,47,0.00,,,0.00,WeatherCatV1.15B25,2013-04-13 16:19:00,
2013-04-13 12:24:00,73.0,51.5,30.00,NNE,22,1.6,1.6,47,0.00,,,0.00,WeatherCatV1.15B25,2013-04-13 16:24:00,
2013-04-13 12:29:00,73.2,51.1,30.01,NE,45,1.6,6.3,46,0.00,,,0.00,WeatherCatV1.15B25,2013-04-13 16:29:00,
2013-04-13 12:34:00,73.2,51.7,30.01,ENE,67,6.9,6.9,47,0.00,,,0.00,WeatherCatV1.15B25,2013-04-13 16:34:00,
2013-04-13 12:39:00,73.6,51.4,30.00,NE,45,0.0,0.0,46,0.00,,,0.00,WeatherCatV1.15B25,2013-04-13 16:39:00,
2013-04-13 12:44:00,73.8,52.2,30.00,ENE,67,3.4,3.8,47,0.00,,,0.00,WeatherCatV1.15B25,2013-04-13 16:44:00,
2013-04-13 12:49:00,73.9,52.3,30.00,NNE,22,4.0,4.0,47,0.00,,,0.00,WeatherCatV1.15B25,2013-04-13 16:49:00,
2013-04-13 12:54:00,73.9,52.9,29.99,NE,45,3.1,3.1,48,0.00,,,0.00,WeatherCatV1.15B25,2013-04-13 16:54:00,
2013-04-13 12:59:00,74.5,52.2,30.00,ENE,67,3.4,5.1,46,0.00,,,0.00,WeatherCatV1.15B25,2013-04-13 16:59:00,
2013-04-13 13:04:00,74.7,53.0,30.00,NNE,22,1.1,1.1,47,0.00,,,0.00,WeatherCatV1.15B25,2013-04-13 17:04:00,
2013-04-13 13:09:00,74.8,53.2,30.00,East,90,4.9,4.9,47,0.00,,,0.00,WeatherCatV1.15B25,2013-04-13 17:09:00,
2013-04-13 13:14:00,74.8,52.6,29.99,ENE,67,7.4,7.4,46,0.00,,,0.00,WeatherCatV1.15B25,2013-04-13 17:14:00,
2013-04-13 13:19:00,74.8,52.6,29.99,NE,45,4.2,4.2,46,0.00,,,0.00,WeatherCatV1.15B25,2013-04-13 17:19:00,
2013-04-13 13:24:00,74.8,52.0,29.99,ENE,67,4.5,4.5,45,0.00,,,0.00,WeatherCatV1.15B25,2013-04-13 17:24:00,
2013-04-13 13:29:00,74.7,52.4,29.99,ESE,112,5.1,5.1,46,0.00,,,0.00,WeatherCatV1.15B25,2013-04-13 17:29:00,
2013-04-13 13:34:00,74.5,52.2,29.99,NNE,22,6.0,6.0,46,0.00,,,0.00,WeatherCatV1.15B25,2013-04-13 17:34:00,
2013-04-13 13:39:00,74.8,53.2,29.99,NNE,22,0.0,0.0,47,0.00,,,0.00,WeatherCatV1.15B25,2013-04-13 17:39:00,
2013-04-13 13:44:00,75.0,53.4,29.98,SE,135,1.8,1.8,47,0.00,,,0.00,WeatherCatV1.15B25,2013-04-13 17:44:00,
2013-04-13 13:49:00,75.4,53.1,29.98,NNE,22,4.0,4.0,46,0.00,,,0.00,WeatherCatV1.15B25,2013-04-13 17:49:00,
2013-04-13 13:54:00,75.6,53.3,29.98,East,90,0.9,0.9,46,0.00,,,0.00,WeatherCatV1.15B25,2013-04-13 17:54:00,
2013-04-13 13:59:00,75.9,53.6,29.99,East,90,0.9,3.4,46,0.00,,,0.00,WeatherCatV1.15B25,2013-04-13 17:59:00,
2013-04-13 14:04:00,75.9,53.6,29.99,ENE,67,5.8,5.8,46,0.00,,,0.00,WeatherCatV1.15B25,2013-04-13 18:04:00,
2013-04-13 14:09:00,75.9,53.6,29.98,NE,45,2.0,2.2,46,0.00,,,0.00,WeatherCatV1.15B25,2013-04-13 18:09:00,
2013-04-13 14:14:00,75.9,54.2,29.98,SSE,157,0.0,0.0,47,0.00,,,0.00,WeatherCatV1.15B25,2013-04-13 18:14:00,
2013-04-13 14:19:00,75.9,54.2,29.98,ESE,112,0.0,0.0,47,0.00,,,0.00,WeatherCatV1.15B25,2013-04-13 18:19:00,
2013-04-13 14:24:00,76.1,54.2,29.98,ESE,112,0.0,0.0,47,0.00,,,0.00,WeatherCatV1.15B25,2013-04-13 18:24:00,
2013-04-13 14:27:00,76.1,54.4,29.98,East,90,3.1,3.1,47,0.00,,,0.00,WeatherCatV1.15B25,2013-04-13 18:27:00,
2013-04-13 14:32:00,75.7,54.0,29.97,ESE,112,0.0,0.0,47,0.00,,,0.00,WeatherCatV1.15B25,2013-04-13 18:32:00,
2013-04-13 14:37:00,75.4,54.3,29.97,NE,45,0.0,0.0,48,0.00,,,0.00,WeatherCatV1.15B25,2013-04-13 18:37:00,
2013-04-13 14:41:00,75.0,54.0,29.97,NNE,22,0.0,0.0,48,0.00,,,0.00,WeatherCatV1.15B25,2013-04-13 18:41:00,
2013-04-13 14:46:00,74.8,54.4,29.97,NE,45,2.2,4.0,49,0.00,,,0.00,WeatherCatV1.15B25,2013-04-13 18:46:00,
2013-04-13 14:51:00,74.3,53.9,29.97,ENE,67,3.1,3.1,49,0.00,,,0.00,WeatherCatV1.15B25,2013-04-13 18:51:00,
2013-04-13 14:56:00,74.1,54.3,29.97,ENE,67,0.0,0.0,50,0.00,,,0.00,WeatherCatV1.15B25,2013-04-13 18:56:00,
2013-04-13 15:01:00,74.3,54.5,29.97,NE,45,4.7,4.7,50,0.00,,,0.00,WeatherCatV1.15B25,2013-04-13 19:01:00,
2013-04-13 15:06:00,74.3,53.9,29.97,SW,225,0.0,0.0,49,0.00,,,0.00,WeatherCatV1.15B25,2013-04-13 19:06:00,
2013-04-13 15:11:00,74.3,54.5,29.96,South,180,0.0,0.0,50,0.00,,,0.00,WeatherCatV1.15B25,2013-04-13 19:11:00,
2013-04-13 15:16:00,74.1,53.7,29.96,East,90,3.1,3.1,49,0.00,,,0.00,WeatherCatV1.15B25,2013-04-13 19:16:00,
2013-04-13 15:21:00,74.1,54.3,29.96,NE,45,2.0,2.0,50,0.00,,,0.00,WeatherCatV1.15B25,2013-04-13 19:21:00,
2013-04-13 15:26:00,74.1,54.3,29.95,NNE,22,0.0,0.0,50,0.00,,,0.00,WeatherCatV1.15B25,2013-04-13 19:26:00,
2013-04-13 15:31:00,74.1,54.3,29.95,SE,135,0.0,0.0,50,0.00,,,0.00,WeatherCatV1.15B25,2013-04-13 19:31:00,
2013-04-13 15:36:00,74.1,54.8,29.95,NE,45,4.2,4.2,51,0.00,,,0.00,WeatherCatV1.15B25,2013-04-13 19:36:00,
2013-04-13 15:41:00,74.3,54.5,29.94,SSE,157,0.9,0.9,50,0.00,,,0.00,WeatherCatV1.15B25,2013-04-13 19:41:00,
2013-04-13 15:46:00,74.8,55.5,29.95,NNE,22,3.1,3.1,51,0.00,,,0.00,WeatherCatV1.15B25,2013-04-13 19:46:00,
2013-04-13 15:51:00,74.8,55.0,29.95,NE,45,1.6,3.1,50,0.00,,,0.00,WeatherCatV1.15B25,2013-04-13 19:51:00,
2013-04-13 15:56:00,75.0,55.2,29.94,NNE,22,5.4,5.4,50,0.00,,,0.00,WeatherCatV1.15B25,2013-04-13 19:56:00,
2013-04-13 16:01:00,75.6,56.2,29.94,NNE,22,3.4,4.5,51,0.00,,,0.00,WeatherCatV1.15B25,2013-04-13 20:01:00,
2013-04-13 16:06:00,75.9,56.6,29.94,NE,45,1.6,2.2,51,0.00,,,0.00,WeatherCatV1.15B25,2013-04-13 20:06:00,
2013-04-13 16:11:00,76.1,56.7,29.93,SE,135,0.0,0.0,51,0.00,,,0.00,WeatherCatV1.15B25,2013-04-13 20:11:00,
2013-04-13 16:16:00,76.3,56.9,29.93,SE,135,0.0,1.1,51,0.00,,,0.00,WeatherCatV1.15B25,2013-04-13 20:16:00,
2013-04-13 16:21:00,76.3,55.8,29.93,East,90,0.0,0.0,49,0.00,,,0.00,WeatherCatV1.15B25,2013-04-13 20:21:00,
2013-04-13 16:26:00,76.1,56.2,29.93,SE,135,0.0,0.0,50,0.00,,,0.00,WeatherCatV1.15B25,2013-04-13 20:26:00,
2013-04-13 16:31:00,76.3,55.8,29.93,SSE,157,0.0,0.0,49,0.00,,,0.00,WeatherCatV1.15B25,2013-04-13 20:31:00,
2013-04-13 16:36:00,76.3,55.8,29.93,SSE,157,0.0,0.0,49,0.00,,,0.00,WeatherCatV1.15B25,2013-04-13 20:36:00,
2013-04-13 16:41:00,76.3,55.8,29.92,South,180,0.0,0.0,49,0.00,,,0.00,WeatherCatV1.15B25,2013-04-13 20:41:00,
2013-04-13 16:46:00,75.9,55.4,29.92,SSE,157,0.0,0.0,49,0.00,,,0.00,WeatherCatV1.15B25,2013-04-13 20:46:00,
2013-04-13 16:51:00,75.6,55.7,29.92,ENE,67,2.2,2.2,50,0.00,,,0.00,WeatherCatV1.15B25,2013-04-13 20:51:00,
2013-04-13 16:56:00,75.4,55.6,29.93,SSE,157,0.0,0.0,50,0.00,,,0.00,WeatherCatV1.15B25,2013-04-13 20:56:00,
2013-04-13 17:01:00,75.0,55.7,29.93,SE,135,0.0,0.0,51,0.00,,,0.00,WeatherCatV1.15B25,2013-04-13 21:01:00,
2013-04-13 17:06:00,74.8,55.5,29.93,South,180,0.0,0.0,51,0.00,,,0.00,WeatherCatV1.15B25,2013-04-13 21:06:00,
2013-04-13 17:11:00,74.1,55.3,29.93,NNE,22,5.4,5.4,52,0.00,,,0.00,WeatherCatV1.15B25,2013-04-13 21:11:00,
2013-04-13 17:16:00,73.8,55.1,29.93,SSW,202,0.0,0.0,53,0.00,,,0.00,WeatherCatV1.15B25,2013-04-13 21:16:00,
2013-04-13 17:21:00,73.6,55.3,29.93,East,90,0.0,0.0,53,0.00,,,0.00,WeatherCatV1.15B25,2013-04-13 21:21:00,
2013-04-13 17:26:00,73.0,54.8,29.93,SE,135,0.0,0.0,53,0.00,,,0.00,WeatherCatV1.15B25,2013-04-13 21:26:00,
2013-04-13 17:31:00,72.5,54.8,29.93,SE,135,0.0,0.0,54,0.00,,,0.00,WeatherCatV1.15B25,2013-04-13 21:31:00,
2013-04-13 17:36:00,72.3,54.6,29.93,SSE,157,0.0,0.0,54,0.00,,,0.00,WeatherCatV1.15B25,2013-04-13 21:36:00,
2013-04-13 17:41:00,72.1,54.5,29.94,South,180,0.0,0.0,54,0.00,,,0.00,WeatherCatV1.15B25,2013-04-13 21:41:00,
2013-04-13 17:46:00,72.0,54.8,29.93,SSE,157,0.0,0.0,55,0.00,,,0.00,WeatherCatV1.15B25,2013-04-13 21:46:00,
2013-04-13 17:51:00,71.8,54.7,29.94,North,0,0.0,0.0,55,0.00,,,0.00,WeatherCatV1.15B25,2013-04-13 21:51:00,
2013-04-13 17:56:00,71.8,54.7,29.93,SE,135,0.0,0.0,55,0.00,,,0.00,WeatherCatV1.15B25,2013-04-13 21:56:00,
2013-04-13 18:01:00,71.4,54.3,29.94,SSE,157,0.0,0.0,55,0.00,,,0.00,WeatherCatV1.15B25,2013-04-13 22:01:00,
2013-04-13 18:06:00,71.2,54.7,29.94,SSE,157,0.0,0.0,56,0.00,,,0.00,WeatherCatV1.15B25,2013-04-13 22:06:00,
2013-04-13 18:11:00,71.2,54.7,29.93,SSE,157,0.0,0.0,56,0.00,,,0.00,WeatherCatV1.15B25,2013-04-13 22:11:00,
2013-04-13 18:16:00,70.9,54.9,29.94,SSE,157,0.0,0.0,57,0.00,,,0.00,WeatherCatV1.15B25,2013-04-13 22:16:00,
2013-04-13 18:21:00,70.9,54.9,29.94,SSE,157,0.0,0.0,57,0.00,,,0.00,WeatherCatV1.15B25,2013-04-13 22:21:00,
2013-04-13 18:26:00,70.7,54.7,29.94,South,180,0.0,0.0,57,0.00,,,0.00,WeatherCatV1.15B25,2013-04-13 22:26:00,
2013-04-13 18:31:00,70.5,55.0,29.94,SSE,157,0.0,0.0,58,0.00,,,0.00,WeatherCatV1.15B25,2013-04-13 22:31:00,
2013-04-13 18:36:00,70.3,55.4,29.94,SSE,157,0.0,0.0,59,0.00,,,0.00,WeatherCatV1.15B25,2013-04-13 22:36:00,
2013-04-13 18:41:00,70.3,55.4,29.94,South,180,0.0,0.0,59,0.00,,,0.00,WeatherCatV1.15B25,2013-04-13 22:41:00,
2013-04-13 18:46:00,70.2,55.2,29.94,SSE,157,0.0,0.0,59,0.00,,,0.00,WeatherCatV1.15B25,2013-04-13 22:46:00,
2013-04-13 18:51:00,70.0,55.6,29.94,South,180,0.0,0.0,60,0.00,,,0.00,WeatherCatV1.15B25,2013-04-13 22:51:00,
2013-04-13 18:56:00,69.6,55.2,29.95,SE,135,0.0,0.0,60,0.00,,,0.00,WeatherCatV1.15B25,2013-04-13 22:56:00,
2013-04-13 19:01:00,69.4,55.5,29.95,SSE,157,0.0,0.0,61,0.00,,,0.00,WeatherCatV1.15B25,2013-04-13 23:01:00,
2013-04-13 19:06:00,69.3,55.3,29.95,SSW,202,0.0,0.0,61,0.00,,,0.00,WeatherCatV1.15B25,2013-04-13 23:06:00,
2013-04-13 19:11:00,69.1,55.1,29.95,South,180,0.0,0.0,61,0.00,,,0.00,WeatherCatV1.15B25,2013-04-13 23:11:00,
2013-04-13 19:16:00,69.1,55.5,29.95,SW,225,0.0,0.0,62,0.00,,,0.00,WeatherCatV1.15B25,2013-04-13 23:16:00,
2013-04-13 19:21:00,68.7,55.2,29.96,South,180,0.0,0.0,62,0.00,,,0.00,WeatherCatV1.15B25,2013-04-13 23:21:00,
2013-04-13 19:26:00,68.7,55.6,29.96,SSE,157,0.0,0.0,63,0.00,,,0.00,WeatherCatV1.15B25,2013-04-13 23:26:00,
2013-04-13 19:31:00,68.5,55.4,29.96,South,180,0.0,0.0,63,0.00,,,0.00,WeatherCatV1.15B25,2013-04-13 23:31:00,
2013-04-13 19:36:00,68.4,55.7,29.96,South,180,0.0,0.0,64,0.00,,,0.00,WeatherCatV1.15B25,2013-04-13 23:36:00,
2013-04-13 19:41:00,68.2,55.5,29.96,South,180,0.0,0.0,64,0.00,,,0.00,WeatherCatV1.15B25,2013-04-13 23:41:00,
2013-04-13 19:46:00,67.8,55.1,29.96,South,180,0.0,0.0,64,0.00,,,0.00,WeatherCatV1.15B25,2013-04-13 23:46:00,
2013-04-13 19:51:00,67.6,55.0,29.96,South,180,0.0,0.0,64,0.00,,,0.00,WeatherCatV1.15B25,2013-04-13 23:51:00,
2013-04-13 19:56:00,67.6,55.0,29.96,South,180,0.0,0.0,64,0.00,,,0.00,WeatherCatV1.15B25,2013-04-13 23:56:00,
2013-04-13 20:01:00,67.3,55.1,29.97,South,180,0.0,0.0,65,0.00,,,0.00,WeatherCatV1.15B25,2013-04-14 00:01:00,
2013-04-13 20:06:00,67.1,54.9,29.97,South,180,0.0,0.0,65,0.00,,,0.00,WeatherCatV1.15B25,2013-04-14 00:06:00,
2013-04-13 20:11:00,67.1,55.3,29.97,South,180,0.0,0.0,66,0.00,,,0.00,WeatherCatV1.15B25,2013-04-14 00:11:00,
2013-04-13 20:16:00,66.9,55.1,29.97,South,180,0.0,0.0,66,0.00,,,0.00,WeatherCatV1.15B25,2013-04-14 00:16:00,
2013-04-13 20:21:00,66.7,55.4,29.97,South,180,0.0,0.0,67,0.00,,,0.00,WeatherCatV1.15B25,2013-04-14 00:21:00,
2013-04-13 20:26:00,66.6,55.2,29.97,South,180,0.0,0.0,67,0.00,,,0.00,WeatherCatV1.15B25,2013-04-14 00:26:00,
2013-04-13 20:31:00,66.4,55.0,29.97,South,180,0.0,0.0,67,0.00,,,0.00,WeatherCatV1.15B25,2013-04-14 00:31:00,
2013-04-13 20:36:00,66.4,55.0,29.97,South,180,0.0,0.0,67,0.00,,,0.00,WeatherCatV1.15B25,2013-04-14 00:36:00,
2013-04-13 20:41:00,66.0,55.1,29.97,South,180,0.0,0.0,68,0.00,,,0.00,WeatherCatV1.15B25,2013-04-14 00:41:00,
2013-04-13 20:46:00,66.0,55.1,29.97,South,180,0.0,0.0,68,0.00,,,0.00,WeatherCatV1.15B25,2013-04-14 00:46:00,
2013-04-13 20:51:00,65.8,55.4,29.97,SSE,157,0.0,0.0,69,0.00,,,0.00,WeatherCatV1.15B25,2013-04-14 00:51:00,
2013-04-13 20:56:00,65.8,55.4,29.96,SSE,157,0.0,0.0,69,0.00,,,0.00,WeatherCatV1.15B25,2013-04-14 00:56:00,
2013-04-13 21:01:00,65.7,55.6,29.96,SSE,157,0.0,0.0,70,0.00,,,0.00,WeatherCatV1.15B25,2013-04-14 01:01:00,
2013-04-13 21:06:00,65.5,55.5,29.97,WNW,292,0.0,0.0,70,0.00,,,0.00,WeatherCatV1.15B25,2013-04-14 01:06:00,
2013-04-13 21:11:00,65.5,55.5,29.97,SSE,157,0.0,0.0,70,0.00,,,0.00,WeatherCatV1.15B25,2013-04-14 01:11:00,
2013-04-13 21:16:00,65.3,55.7,29.97,SSE,157,0.0,0.0,71,0.00,,,0.00,WeatherCatV1.15B25,2013-04-14 01:16:00,
2013-04-13 21:21:00,65.3,55.7,29.97,SSE,157,0.0,0.0,71,0.00,,,0.00,WeatherCatV1.15B25,2013-04-14 01:21:00,
2013-04-13 21:26:00,65.1,55.5,29.97,SW,225,0.0,0.0,71,0.00,,,0.00,WeatherCatV1.15B25,2013-04-14 01:26:00,
2013-04-13 21:31:00,65.1,55.9,29.98,SSW,202,0.0,0.0,72,0.00,,,0.00,WeatherCatV1.15B25,2013-04-14 01:31:00,
2013-04-13 21:36:00,65.1,55.9,29.98,East,90,0.0,0.0,72,0.00,,,0.00,WeatherCatV1.15B25,2013-04-14 01:36:00,
2013-04-13 21:41:00,65.1,55.9,29.98,SE,135,0.0,0.0,72,0.00,,,0.00,WeatherCatV1.15B25,2013-04-14 01:41:00,
2013-04-13 21:46:00,65.1,56.2,29.98,SSW,202,0.0,0.0,73,0.00,,,0.00,WeatherCatV1.15B25,2013-04-14 01:46:00,
2013-04-13 21:51:00,64.9,56.1,29.98,South,180,0.0,0.0,73,0.00,,,0.00,WeatherCatV1.15B25,2013-04-14 01:51:00,
2013-04-13 21:56:00,64.9,56.1,29.98,South,180,0.0,0.0,73,0.00,,,0.00,WeatherCatV1.15B25,2013-04-14 01:56:00,
2013-04-13 22:01:00,64.9,56.1,29.98,ESE,112,0.0,0.0,73,0.00,,,0.00,WeatherCatV1.15B25,2013-04-14 02:01:00,
2013-04-13 22:06:00,64.8,55.9,29.99,ESE,112,0.0,0.0,73,0.00,,,0.00,WeatherCatV1.15B25,2013-04-14 02:06:00,
2013-04-13 22:11:00,64.8,55.9,29.99,ENE,67,0.0,0.0,73,0.00,,,0.00,WeatherCatV1.15B25,2013-04-14 02:11:00,
2013-04-13 22:16:00,64.8,55.9,30.00,East,90,0.0,0.0,73,0.00,,,0.00,WeatherCatV1.15B25,2013-04-14 02:16:00,
2013-04-13 22:21:00,64.8,55.9,29.99,East,90,0.0,0.0,73,0.00,,,0.00,WeatherCatV1.15B25,2013-04-14 02:21:00,
2013-04-13 22:26:00,64.8,56.1,29.99,ENE,67,0.0,0.0,74,0.00,,,0.00,WeatherCatV1.15B25,2013-04-14 02:26:00,
2013-04-13 22:31:00,64.6,56.1,30.00,ENE,67,0.0,0.0,74,0.00,,,0.00,WeatherCatV1.15B25,2013-04-14 02:31:00,
2013-04-13 22:36:00,64.6,56.1,30.00,ENE,67,0.0,0.0,74,0.00,,,0.00,WeatherCatV1.15B25,2013-04-14 02:36:00,
2013-04-13 22:41:00,64.6,56.1,30.01,ENE,67,0.0,0.0,74,0.00,,,0.00,WeatherCatV1.15B25,2013-04-14 02:41:00,
2013-04-13 22:46:00,64.6,56.5,30.01,ESE,112,0.0,0.0,75,0.00,,,0.00,WeatherCatV1.15B25,2013-04-14 02:46:00,
2013-04-13 22:51:00,64.6,56.5,30.00,SSW,202,0.0,0.0,75,0.00,,,0.00,WeatherCatV1.15B25,2013-04-14 02:51:00,
2013-04-13 22:56:00,64.4,56.3,30.00,SSW,202,0.0,0.0,75,0.00,,,0.00,WeatherCatV1.15B25,2013-04-14 02:56:00,
2013-04-13 23:01:00,64.2,56.1,30.00,SSW,202,0.0,0.0,75,0.00,,,0.00,WeatherCatV1.15B25,2013-04-14 03:01:00,
2013-04-13 23:06:00,64.2,56.5,30.01,SSW,202,0.0,0.0,76,0.00,,,0.00,WeatherCatV1.15B25,2013-04-14 03:06:00,
2013-04-13 23:11:00,64.2,56.5,30.01,SSW,202,0.0,0.0,76,0.00,,,0.00,WeatherCatV1.15B25,2013-04-14 03:11:00,
2013-04-13 23:16:00,64.0,56.3,30.01,SSW,202,0.0,0.0,76,0.00,,,0.00,WeatherCatV1.15B25,2013-04-14 03:16:00,
2013-04-13 23:21:00,64.0,56.3,30.01,SSW,202,0.0,0.0,76,0.00,,,0.00,WeatherCatV1.15B25,2013-04-14 03:21:00,
2013-04-13 23:26:00,63.7,55.9,30.02,SSW,202,0.0,0.0,76,0.00,,,0.00,WeatherCatV1.15B25,2013-04-14 03:26:00,
2013-04-13 23:31:00,63.7,55.9,30.02,SSW,202,0.0,0.0,76,0.00,,,0.00,WeatherCatV1.15B25,2013-04-14 03:31:00,
2013-04-13 23:36:00,63.7,56.3,30.03,SSW,202,0.0,0.0,77,0.00,,,0.00,WeatherCatV1.15B25,2013-04-14 03:36:00,
2013-04-13 23:41:00,63.5,56.1,30.03,SSW,202,0.0,0.0,77,0.00,,,0.00,WeatherCatV1.15B25,2013-04-14 03:41:00,
2013-04-13 23:46:00,63.3,56.3,30.03,SSW,202,0.0,0.0,78,0.00,,,0.00,WeatherCatV1.15B25,2013-04-14 03:46:00,
2013-04-13 23:51:00,63.3,56.3,30.03,SSW,202,0.0,0.0,78,0.00,,,0.00,WeatherCatV1.15B25,2013-04-14 03:51:00,
2013-04-13 23:56:00,63.1,56.1,30.03,SSW,202,0.0,0.0,78,0.00,,,0.00,WeatherCatV1.15B25,2013-04-14 03:56:00,